Regional Weather Roundup
Issued by NWS

Home | Current Version | Previous Version | Graphics & Text | Print | Product List | Glossary Off
Versions: 1 2 3 4 5 6 7 8 9 10 11 12 13 14 15 16 17 18 19 20 21 22 23 24 25 26 27 28 29 30 31 32 33 34 35 36 37 38 39 40 41 42 43 44 45 46 47 48 49 50

000
ASUS43 KMKX 220221
RWRWI

WISCONSIN REGIONAL WEATHER ROUNDUP
NATIONAL WEATHER SERVICE MILWAUKEE/SULLIVAN WI
800 PM CST SUN DEC 21 2014

NOTE: "FAIR" INDICATES FEW OR NO CLOUDS BELOW 12,000 FEET WITH NO
SIGNIFICANT WEATHER AND/OR OBSTRUCTIONS TO VISIBILITY.

WIZ001-002-006>008-014>016-023>028-220300-
NORTHWEST WISCONSIN

CITY           SKY/WX    TMP DP  RH WIND       PRES   REMARKS
SUPERIOR ARPT  CLOUDY    34  33  94 S5        29.76S WCI  30
ASHLAND        CLOUDY    34  32  92 SE3       29.79F
HAYWARD        LGT SNOW  34  32  92 S6        29.77F FOG     WCI  29
SIREN          LGT RAIN  34  34  99 SE7       29.76S WCI  28
CUMBERLAND     CLOUDY    34  32  93 S8        29.77R FOG     WCI  27
RICE LAKE      LGT RAIN  34  34  99 SE9       29.79S WCI  27
CHETEK         LGT RAIN  35  34  98 SE8       29.79S WCI  28
LADYSMITH      LGT RAIN  34  33  96 SE6       29.82R WCI  29
EAU CLAIRE     CLOUDY    37  34  89 S10       29.80S WCI  30
MENOMONIE      CLOUDY    38  37  99 SE6       29.79S FOG     WCI  33
NEW RICHMOND   DRIZZLE   35  35 100 S6        29.76F WCI  30
OSCEOLA        CLOUDY    36  36 100 SE12      29.77F FOG     WCI  28
$$

WIZ003>005-009-010-017-018-220300-
NORTH CENTRAL WISCONSIN

CITY           SKY/WX    TMP DP  RH WIND       PRES   REMARKS
MANITOWISH WTR LGT SNOW  32  32 100 S10       29.81S WCI  24
ARBOR VITAE    LGT SNOW  34  32  93 S12       29.82S WCI  25
WOODRUFF       LGT SNOW  34  32  93 S12       29.82S WCI  25
RHINELANDER    LGT SNOW  32  30  92 S8        29.85S FOG     WCI  25
EAGLE RIVER    LGT SNOW  32  32 100 S6        29.83F WCI  26
LAND O LAKES   LGT SNOW  33  32  98 S7        29.84S WCI  26
PHILLIPS       FLURRIES  32  32  99 S12       29.80S WCI  23
TOMAHAWK       LGT RAIN  32  31  98 S7        29.84F WCI  26
MEDFORD        DRIZZLE   32  32  99 S15       29.83S WCI  22
MERRILL        LGT SNOW  33  33 100 S12G17    29.86S WCI  24
$$

WIZ029-030-035-036-043>047-220300-
CENTRAL WISCONSIN

CITY           SKY/WX    TMP DP  RH WIND       PRES   REMARKS
WAUSAU         LGT SNOW  33  32  96 S14       29.87S FOG     WCI  23
MOSINEE        CLOUDY    34  34 100 S18       29.89S FOG     WCI  23
MARSHFIELD     MIX PCPN  34  33  96 S16       29.85F FOG     WCI  24
STEVENS POINT  DRIZZLE   32  32  99 S7        29.90F WCI  26
WAUPACA        CLOUDY    37  32  82 SE10G16   29.95F WCI  30
WAUTOMA        CLOUDY    36  33  88 S13       29.95S WCI  27
WISC RAPIDS    MIX PCPN  35  32  88 S10       29.90F FOG     WCI  27
CAMP DOUGLAS   CLOUDY    36  36 100 SE9       29.89F WCI  29
$$

WIZ011>013-019>022-031-037>040-048>050-220300-
NORTHEAST WISCONSIN

CITY           SKY/WX    TMP DP  RH WIND       PRES   REMARKS
ANTIGO         LGT SNOW  32  32 100 S13       29.88F WCI  22
SHAWANO        CLOUDY    36  33  87 S8        29.96F FOG     WCI  30
OCONTO         CLOUDY    34  33  95 S9        29.99F WCI  27
STURGEON BAY   CLOUDY    36  34  93 S12G17    30.02F WCI  27
GREEN BAY      CLOUDY    36  31  82 S16       29.99F WCI  26
MANITOWOC      CLOUDY    37  34  89 S18G26    30.03F WCI  27
APPLETON       CLOUDY    34  30  86 S14       29.98F WCI  24
CLINTONVILLE   CLOUDY    34  32  93 S10       29.95F WCI  26
OSHKOSH        CLOUDY    35  30  82 S13       29.98F WCI  26
$$

WIZ032>034-041-042-053>061-220300-
SOUTHWEST WISCONSIN

CITY           SKY/WX    TMP DP  RH WIND       PRES   REMARKS
LA CROSSE      CLOUDY    39  35  86 S15G23    29.84R WCI  31
SPARTA         CLOUDY    37  34  88 S13G21    29.87S WCI  29
VIROQUA        CLOUDY    35  35 100 S16G23    29.86S WCI  25
BOSCOBEL       CLOUDY    38  32  79 SE8       29.91F HAZE    WCI  32
PRAIRIE DU CHI CLOUDY    37  33  84 SE7       29.89F WCI  32
PLATTEVILLE    CLOUDY    35  32  89 SE17      29.94R WCI  25
$$

WIZ056-057-062-063-064-067-068-220300-
SOUTH CENTRAL WISCONSIN

CITY           SKY/WX    TMP DP  RH WIND       PRES   REMARKS
REEDSBURG      CLOUDY    35  32  88 S8        29.92S WCI  29
BARABOO/DELLS  CLOUDY    35  31  87 S22G28    29.91F WCI  23
LONE ROCK      CLOUDY    40  31  70 S9        29.94F WCI  34
MINERAL POINT  CLOUDY    36  32  87 SE17      29.92S WCI  25
MADISON        CLOUDY    36  30  79 S16G23    29.96F WCI  26
MIDDLETON      CLOUDY    37  32  82 S10G16    29.96F WCI  30
WATERTOWN      CLOUDY    35  31  88 SE9       29.98F WCI  27
MONROE         CLOUDY    34  32  93 S15       29.96S WCI  24
JANESVILLE     CLOUDY    37  30  75 SE15G21   29.98F WCI  28
$$

WIZ051-052-058>065-066-070>072-220300-
SOUTHEAST WISCONSIN

CITY           SKY/WX    TMP DP  RH WIND       PRES   REMARKS
MILWAUKEE      CLOUDY    36  29  75 SE13      30.05F WCI  27
WAUKESHA       CLOUDY    34  28  80 SE12      30.03F WCI  25
MILWAUKEE/TIMM CLOUDY    36  28  75 S12G17    30.05F WCI  27
RACINE         CLOUDY    36  29  75 S14       30.06F WCI  27
BURLINGTON     CLOUDY    33  29  85 S10       30.02F WCI  25
KENOSHA        CLOUDY    36  29  75 S13       30.05F WCI  27
FOND DU LAC    CLOUDY    36  29  75 S18G29    29.98F WCI  26
SHEBOYGAN      CLOUDY    35  30  82 S15       30.03S WCI  25
WEST BEND      CLOUDY    34  30  86 SE12G18   30.01F WCI  25
JUNEAU         CLOUDY    34  30  85 SE16      29.99F WCI  24
$$

LSZ147-162-220300-
LAKE SUPERIOR

STATION/POSITION TIME  TEMP    WIND        PRES    WAVE
                       AIR SEA DIR/SP/G            HT/PER
                 (UTC) (F)     (DEG/KT/KT) (MB)    (FT/S)
DEVILS ISLAND    0200   34     150/  9/ 12 1009.6F
PORT WING        0100   36     160/  7/ 12 1008.8S
SAXON HARBOR     0100   36      CALM  /  5 1009.5F
$$

LMZ867-665-643>646-220300-
LAKE MICHIGAN

STATION/POSITION TIME  TEMP    WIND        PRES    WAVE
                       AIR SEA DIR/SP/G            HT/PER
                 (UTC) (F)     (DEG/KT/KT) (MB)    (FT/S)
CHAMBERS ISLAND  0100   37     150/  7/ 14 1016.3S
NORTHPORT PIER   0100   36     160/ 12/ 18 1016.9S
SISTER BAY       0113          200/ 18/ 22   N/A
ALGOMA LAKESHORE 0115          220/ 23/ 26   N/A
KEWAUNEE LAKESHO 0100   37     180/ 18/ 21 1016.1F
SHEBOYGAN LAKESH 0200   38 36  180/ 23/ 26 1017.5S
PORT WASHINGTON  0140   37     180/ 17/ 21 1018.3S
MILWAUKEE LAKESH 0200   36     170/ 15/ 18   N/A
KENOSHA   LAKESH 0200   36     170/ 16/ 18 1017.3F
$$

TC  - TEMPERATURE IN CELSIUS
VSB - VISIBILITY IN STATUTE MILES
WCI - WIND CHILL INDEX
HX  - HEAT INDEX



USA.gov is the U.S. government's official web portal to all federal, state and local government web resources and services.